Tampa, FL

1:38 AM EST on January 21, 2017 (GMT -0500)
Tampa Macdill AFB

Weather History for KMCF - September, 2012

Change the Weather History Date:

Saturday, September 22, 2012

  Actual Average Record
Temperature  
Mean Temperature 80 °F -  
Max Temperature 89 °F 86 °F 95 °F (2011)
Min Temperature 72 °F 72 °F 68 °F (1999)
Cooling Degree Days 16    
Growing Degree Days 30 (Base 50)    
Moisture  
Dew Point 75 °F    
Average Humidity 85    
Maximum Humidity 100    
Minimum Humidity 62    
Precipitation  
Precipitation 0.00 in - - ()
Sea Level Pressure  
Sea Level Pressure 30.01 in    
Wind  
Wind Speed 5 mph (East)    
Max Wind Speed 9 mph    
Max Gust Speed -    
Visibility 10 miles    
Events      
Averages and records for this station are not official NWS values.
T = Trace of Precipitation, MM = Missing Value Source: NWS Daily Summary

Daily Weather History Graph

Daily Weather History Graph

Search for Another Location

Airport or City:

Trip Planner

Search our weather history database for the weather conditions in past years. The results will help you decide how hot, cold, wet, or windy it might be!

Date:

Astronomy

Sep. 22, 2012 Rise Set
Actual Time 7:18 AM EDT 7:25 PM EDT
Civil Twilight 6:55 AM EDT 7:49 PM EDT
Nautical Twilight 6:28 AM EDT 8:16 PM EDT
Astronomical Twilight 6:00 AM EDT 8:43 PM EDT
Moon 2:05 PM EDT (9/22) No Moon Set
Length of Visible Light 12h 53m
Length of Day
12h 07m
Waxing Crescent, 48% of the Moon is Illuminated
Sep 22
Waxing Crescent
Sep 22
First Quarter
Sep 29
Full
Oct 8
Last Quarter
Oct 15
New

Hourly Weather History & Observations

Time (EDT) Temp. Heat Index Dew Point Humidity Pressure Visibility Wind Dir Wind Speed Gust Speed Precip Events Conditions
12:55 AM 73.0 °F - 73.0 °F 100% 30.01 in 10.0 mi East 6.9 mph - N/A   Overcast
1:55 AM 72.9 °F - 72.9 °F 100% 29.99 in 10.0 mi SE 3.5 mph - N/A   Overcast
2:55 AM 72.3 °F - 72.3 °F 100% 29.97 in 10.0 mi East 4.6 mph - N/A   Partly Cloudy
3:55 AM 72.9 °F - 72.9 °F 100% 29.96 in 10.0 mi SE 4.6 mph - N/A   Mostly Cloudy
4:55 AM 72.9 °F - 72.9 °F 100% 29.98 in 10.0 mi East 4.6 mph - N/A   Scattered Clouds
5:55 AM 72.1 °F - 72.1 °F 100% 29.99 in 10.0 mi Calm Calm - N/A   Scattered Clouds
6:55 AM 72.1 °F - 72.1 °F 100% 30.01 in 10.0 mi Calm Calm - N/A   Mostly Cloudy
7:55 AM 72.1 °F - 72.1 °F 100% 30.03 in 10.0 mi Calm Calm - N/A   Scattered Clouds
8:55 AM 73.8 °F - 73.8 °F 100% 30.04 in 10.0 mi NE 4.6 mph - N/A   Partly Cloudy
9:55 AM 75.6 °F - 75.6 °F 100% 30.05 in 10.0 mi East 5.8 mph - N/A   Partly Cloudy
10:55 AM 81.3 °F 89.9 °F 78.8 °F 92% 30.05 in 10.0 mi ENE 5.8 mph - N/A   Partly Cloudy
11:55 AM 84.0 °F 92.6 °F 75.9 °F 76% 30.05 in 10.0 mi East 6.9 mph - N/A   Clear
12:55 PM 86.2 °F 97.4 °F 76.8 °F 74% 30.03 in 10.0 mi WNW 4.6 mph - N/A   Scattered Clouds
12:57 PM 86.0 °F 96.9 °F 77.0 °F 74% 30.03 in 10.0 mi WNW 4.6 mph - N/A   Mostly Cloudy
1:09 PM 87.8 °F 99.7 °F 77.0 °F 70% 30.03 in 10.0 mi Calm Calm - N/A   Scattered Clouds
1:55 PM 88.0 °F 100.2 °F 77.0 °F 70% 30.01 in 10.0 mi WNW 5.8 mph - N/A   Clear
2:55 PM 87.6 °F 95.2 °F 73.2 °F 62% 29.99 in 10.0 mi Variable 3.5 mph - N/A   Partly Cloudy
3:44 PM 87.8 °F 95.6 °F 73.4 °F 62% 29.97 in 10.0 mi Variable 4.6 mph - N/A   Light Drizzle
3:48 PM 89.6 °F 99.8 °F 75.2 °F 62% 29.97 in 10.0 mi NW 6.9 mph - N/A   Clear
3:55 PM 89.2 °F 99.0 °F 74.7 °F 62% 29.97 in 10.0 mi NNW 6.9 mph - 0.00 in   Clear
4:55 PM 87.8 °F 98.6 °F 75.9 °F 68% 29.97 in 10.0 mi NNW 8.1 mph - N/A   Clear
5:55 PM 84.7 °F 93.2 °F 75.4 °F 73% 29.98 in 10.0 mi NNW 8.1 mph - N/A   Scattered Clouds
6:55 PM 83.5 °F 90.9 °F 74.7 °F 75% 29.99 in 10.0 mi NNW 6.9 mph - N/A   Clear
7:55 PM 81.0 °F 86.0 °F 73.6 °F 78% 30.00 in 10.0 mi North 4.6 mph - N/A   Scattered Clouds
8:37 PM 80.6 °F 86.2 °F 75.2 °F 84% 30.02 in 10.0 mi SSE 9.2 mph - N/A   Overcast
8:52 PM 78.8 °F - 75.2 °F 89% 30.03 in 10.0 mi South 6.9 mph - N/A   Overcast
8:55 PM 78.3 °F - 75.2 °F 90% 30.03 in 10.0 mi South 5.8 mph - N/A   Overcast
9:09 PM 78.8 °F - 75.2 °F 89% 30.04 in 10.0 mi East 6.9 mph - N/A   Overcast
9:32 PM 77.0 °F - 75.2 °F 94% 30.04 in 10.0 mi Variable 3.5 mph - N/A   Mostly Cloudy
9:55 PM 77.4 °F - 74.8 °F 92% 30.05 in 10.0 mi SE 4.6 mph - N/A   Mostly Cloudy
10:55 PM 77.0 °F - 76.1 °F 97% 30.05 in 10.0 mi SSW 6.9 mph - N/A   Partly Cloudy
11:55 PM 76.8 °F - 74.3 °F 92% 30.06 in 10.0 mi Calm Calm - N/A   Clear